Location: Unspecified
(0.0000°N, 0.0000°E)
Time: 20:00:45
(UTC+00:00)

Hubble Space Telescope - Pass Details

Date: 02 March 2021
Orbit: 536 x 539 km, 28.5° (Epoch: 25 February)

Event Time Altitude Azimuth Distance (km) Brightness Sun altitude
Exits shadow 04:01:32 19° 77° (ENE) 1,308 3.3 -32.4°
Drops below altitude 10° 04:03:03 10° 92° (E) 1,782 4.3 -32.0°
Sets 04:05:31 0° 102° (ESE) 2,674 5.5 -31.4°
